Regional Weather Roundup
Issued by NWS Goodland, KS

Home | Current Version | Previous Version | Text Only | Print | Product List | Glossary On
Versions: 1 2 3 4 5 6 7 8 9 10 11 12 13 14 15 16 17 18 19 20 21 22 23 24 25 26 27 28 29 30 31 32 33 34 35 36 37 38 39 40 41 42 43 44 45 46 47 48 49 50
000
ASUS43 KGLD 152208
RWRGLD

GOODLAND FORECAST AREA HOURLY WEATHER ROUNDUP
NATIONAL WEATHER SERVICE GOODLAND KS
400 PM MDT MON JUL 15 2019

...OFFICIAL OBSERVATIONS...

CITY           SKY/WX    TMP DP  RH WIND       PRES   REMARKS
GOODLAND KS    SUNNY     96  53  23 S15       29.96F
HILL CITY KS   SUNNY     97  63  32 S13G18    29.91F
IMPERIAL NEB   SUNNY     96  57  27 VRB6      29.94F
MCCOOK NEB     SUNNY     95  61  32 S14       29.90F
AKRON CO       SUNNY     88  57  34 NE10      30.04F
BURLINGTON CO  SUNNY     95  52  23 SE14G25   30.00F
LIMON CO       MOSUNNY   88  49  25 E10       30.08F
$$

...UNOFFICIAL OBSERVATIONS...

CITY           SKY/WX    TMP DP  RH WIND       PRES   REMARKS
COLBY KS       SUNNY     95  52  23 SE13G23   29.96F
SHARON SPRINGS   N/A     96  52  22 S14G21      N/A
KIT CARSON CO    N/A     93  57  29 MISG        N/A
YUMA CO        FAIR      95  50  21 NE7       29.98
$$



USA.gov is the U.S. government's official web portal to all federal, state and local government web resources and services.